TimePDT,TemperatureF,Dew PointF,Humidity,Sea Level PressureIn,VisibilityMPH,Wind Direction,Wind SpeedMPH,Gust SpeedMPH,PrecipitationIn,Events,Conditions,WindDirDegrees,DateUTC
12:53 AM,64.0,57.9,80,30.05,10.0,Calm,Calm,-,N/A,,Clear,0,2012-10-14 07:53:00
1:53 AM,64.0,57.9,80,30.06,10.0,WNW,3.5,-,N/A,,Clear,290,2012-10-14 08:53:00
2:53 AM,64.0,57.9,80,30.04,10.0,Calm,Calm,-,N/A,,Clear,0,2012-10-14 09:53:00
3:53 AM,63.0,57.9,84,30.04,10.0,NNW,3.5,-,N/A,,Clear,330,2012-10-14 10:53:00
4:53 AM,62.1,57.0,84,30.04,10.0,Calm,Calm,-,N/A,,Clear,0,2012-10-14 11:53:00
5:53 AM,62.1,55.9,80,30.04,10.0,WNW,4.6,-,N/A,,Clear,300,2012-10-14 12:53:00
6:53 AM,61.0,55.0,81,30.04,10.0,Calm,Calm,-,N/A,,Clear,0,2012-10-14 13:53:00
7:53 AM,62.1,55.0,78,30.06,9.0,Calm,Calm,-,N/A,,Clear,0,2012-10-14 14:53:00
8:53 AM,66.0,55.9,70,30.06,8.0,Calm,Calm,-,N/A,,Clear,0,2012-10-14 15:53:00
9:53 AM,73.0,55.0,53,30.04,7.0,NNW,4.6,-,N/A,,Clear,330,2012-10-14 16:53:00
10:53 AM,80.1,55.0,42,30.02,7.0,NNW,4.6,-,N/A,,Clear,330,2012-10-14 17:53:00
11:53 AM,86.0,50.0,29,30.00,10.0,Calm,Calm,-,N/A,,Clear,0,2012-10-14 18:53:00
12:53 PM,91.0,44.1,20,29.98,10.0,WNW,5.8,-,N/A,,Clear,290,2012-10-14 19:53:00
1:53 PM,93.9,46.0,19,29.94,10.0,West,5.8,-,N/A,,Clear,280,2012-10-14 20:53:00
2:53 PM,90.0,57.0,33,29.93,10.0,WNW,15.0,-,N/A,,Clear,300,2012-10-14 21:53:00
3:53 PM,82.9,53.1,36,29.94,10.0,WNW,13.8,-,N/A,,Clear,290,2012-10-14 22:53:00
4:53 PM,81.0,53.1,38,29.92,10.0,WNW,12.7,-,N/A,,Clear,300,2012-10-14 23:53:00
5:53 PM,80.1,52.0,38,29.92,10.0,NW,9.2,-,N/A,,Clear,310,2012-10-15 00:53:00
6:53 PM,77.0,51.1,40,29.92,10.0,NW,3.5,-,N/A,,Clear,320,2012-10-15 01:53:00
7:53 PM,75.0,51.1,43,29.93,10.0,NNW,4.6,-,N/A,,Clear,340,2012-10-15 02:53:00
8:53 PM,75.0,51.1,43,29.94,10.0,Calm,Calm,-,N/A,,Clear,0,2012-10-15 03:53:00
9:53 PM,73.9,52.0,46,29.94,10.0,South,3.5,-,N/A,,Clear,180,2012-10-15 04:53:00
10:53 PM,70.0,55.0,59,29.95,10.0,Calm,Calm,-,N/A,,Clear,0,2012-10-15 05:53:00
11:53 PM,69.1,54.0,58,29.94,10.0,Calm,Calm,-,N/A,,Clear,0,2012-10-15 06:53:00